Bell Canyon (1243) Station Data

Red Flag Warning: No
Fire Weather Zone: 242
SDGE Region: Orange County
Lat/Lon: 33.558/-117.547

Observations

Time Wind Speed/Gust Temp(F) RH Fuel Moist Fuel Temp(F) Dewpt(F) Tmax(F) Tmin(F) Accum Precip 10-min Precip SL Press(mb)
2/27 11:40pm 233 1 G 4 51° 100% - - 51° 57.6° 46.2° - - 897.0
2/27 11:20pm 258 0 G 2 51° 100% - - 51° 57.6° 46.2° - - 897.0
2/27 11:10pm 255 1 G 5 51° 100% - - 51° 57.6° 46.2° - - 898.0
2/27 11:00pm 256 2 G 5 51° 100% - - 51° 57.6° 46.2° - - 898.0
2/27 10:50pm 254 2 G 6 51° 100% - - 51° 57.6° 46.2° - - 898.0
2/27 10:40pm 263 3 G 6 51° 100% - - 51° 57.6° 46.2° - - 898.0
2/27 10:30pm 271 2 G 5 51° 100% - - 51° 57.6° 46.2° - - 898.0
2/27 10:20pm 263 3 G 8 51° 100% - - 51° 57.6° 46.2° - - 898.0
2/27 10:10pm 271 4 G 7 52° 100% - - 52° 57.6° 46.2° - - 898.0
2/27 10:00pm 230 2 G 6 52° 100% - - 52° 57.6° 46.2° - - 898.0
2/27 9:50pm 232 1 G 3 52° 100% - - 52° 57.6° 46.2° - - 898.0
2/27 9:40pm 237 2 G 5 52° 100% - - 52° 57.6° 46.2° - - 898.0
2/27 9:30pm 239 1 G 3 52° 100% - - 52° 57.6° 46.2° - - 898.0
2/27 9:20pm 223 2 G 3 52° 100% - - 52° 57.6° 46.2° - - 898.0
2/27 9:10pm 217 0 G 1 52° 100% - - 52° 57.6° 46.2° - - 898.0
2/27 9:00pm 161 0 G 2 52° 100% - - 52° 57.6° 46.2° - - 898.0
2/27 8:50pm 0 0 G 0 52° 100% - - 52° 57.6° 46.2° - - 898.0
2/27 8:40pm 0 0 G 0 52° 100% - - 52° 57.6° 46.2° - - 898.0
2/27 8:30pm 308 0 G 1 52° 100% - - 52° 57.6° 46.2° - - 898.0
2/27 8:20pm 0 0 G 0 52° 100% - - 52° 57.6° 46.2° - - 898.0
2/27 8:10pm 19 0 G 0 52° 100% - - 52° 57.6° 46.2° - - 898.0
2/27 8:00pm 122 1 G 2 52° 100% - - 52° 57.6° 46.2° - - 898.0
2/27 7:50pm 149 0 G 2 52° 100% - - 52° 57.6° 46.2° - - 898.0
2/27 7:40pm 158 0 G 1 52° 100% - - 52° 57.6° 46.2° - - 898.0
2/27 7:30pm 158 0 G 2 52° 100% - - 52° 57.6° 46.2° - - 898.0
2/27 7:20pm 149 0 G 3 52° 100% - - 52° 57.6° 46.2° - - 898.0
2/27 7:10pm 0 0 G 0 52° 100% - - 52° 57.6° 46.2° - - 898.0
2/27 7:00pm 145 0 G 1 52° 100% - - 52° 57.6° 46.2° - - 898.0
2/27 6:50pm 160 0 G 1 53° 100% - - 53° 57.6° 46.2° - - 898.0
2/27 6:40pm 218 2 G 5 53° 100% - - 53° 57.6° 46.2° - - 898.0
2/27 6:30pm 207 0 G 3 53° 100% - - 53° 57.6° 46.2° - - 898.0
2/27 6:20pm 209 0 G 2 53° 100% - - 53° 57.6° 46.2° - - 898.0
2/27 6:10pm 256 0 G 2 53° 100% - - 53° 57.6° 46.2° - - 898.0
2/27 6:00pm 240 2 G 5 53° 100% - - 53° 57.6° 46.2° - - 898.0
2/27 5:50pm 229 1 G 3 53° 100% - - 54° 57.6° 46.2° - - 897.0
2/27 5:40pm 227 0 G 2 54° 100% - - 54° 57.6° 46.2° - - 897.0
2/27 5:30pm 207 0 G 1 54° 100% - - 54° 57.6° 46.2° - - 897.0
2/27 5:20pm 137 0 G 2 54° 100% - - 54° 57.6° 46.2° - - 897.0
2/27 5:10pm 209 0 G 1 54° 100% - - 54° 57.6° 46.2° - - 897.0
2/27 5:00pm 220 0 G 3 54° 100% - - 54° 57.6° 46.2° - - 897.0
2/27 4:50pm 236 0 G 1 54° 100% - - 54° 57.6° 46.2° - - 897.0
2/27 4:40pm 323 0 G 0 54° 100% - - 54° 57.6° 46.2° - - 897.0
2/27 4:30pm 351 0 G 2 54° 100% - - 54° 57.6° 46.2° - - 897.0
2/27 4:20pm 256 1 G 3 54° 100% - - 54° 57.6° 46.2° - - 896.0
2/27 4:10pm 255 1 G 4 54° 100% - - 54° 57.6° 46.2° - - 896.0
2/27 4:00pm 250 2 G 6 54° 100% - - 54° 57.6° 46.2° - - 896.0
2/27 3:50pm 253 2 G 5 54° 99% - - 54° 57.6° 46.2° - - 895.0
2/27 3:40pm 253 3 G 5 54° 97% - - 54° 57.6° 46.2° - - 894.0
2/27 3:30pm 257 2 G 4 55° 96% - - 53° 57.6° 46.2° - - 894.0
2/27 3:20pm 257 2 G 5 55° 96% - - 53° 57.6° 46.2° - - 894.0
2/27 3:10pm 271 3 G 7 55° 94% - - 53° 57.6° 46.2° - - 893.0
2/27 3:00pm 268 3 G 7 55° 94% - - 53° 57.6° 46.2° - - 893.0
2/27 2:50pm 274 3 G 5 55° 92% - - 53° 57.6° 46.2° - - 892.0
2/27 2:40pm 277 3 G 5 55° 91% - - 53° 57.6° 46.2° - - 892.0
2/27 2:30pm 266 3 G 7 56° 91% - - 53° 57.6° 46.2° - - 892.0
2/27 2:20pm 238 3 G 6 57° 92% - - 54° 57.6° 46.2° - - 893.0
2/27 2:10pm 232 3 G 8 57° 91% - - 54° 57.6° 46.2° - - 893.0
2/27 2:00pm 209 2 G 5 57° 91% - - 54° 57.6° 46.2° - - 893.0
2/27 1:50pm 170 1 G 4 57° 91% - - 55° 57.6° 46.2° - - 893.0
2/27 1:40pm 203 0 G 3 57° 91% - - 54° 57.6° 46.2° - - 893.0
2/27 1:30pm 210 2 G 5 57° 90% - - 54° 57.6° 46.2° - - 892.0
2/27 1:20pm 210 2 G 5 57° 89% - - 54° 57.6° 46.2° - - 892.0
2/27 1:10pm 223 3 G 5 57° 89% - - 54° 57.6° 46.2° - - 892.0
2/27 1:00pm 228 3 G 7 57° 89% - - 54° 57.5° 46.2° - - 892.0
2/27 12:40pm 250 1 G 3 57° 90% - - 54° 57.4° 46.2° - - 892.0
2/27 12:30pm 230 0 G 2 57° 91% - - 54° 57.3° 46.2° - - 893.0
2/27 12:20pm 227 0 G 2 57° 91% - - 54° 56.9° 46.2° - - 892.0
2/27 12:10pm 214 1 G 4 56° 91% - - 54° 56.8° 46.2° - - 892.0
2/27 12:00pm 206 1 G 4 57° 91% - - 54° 56.8° 46.2° - - 892.0
2/27 11:50am 220 1 G 3 56° 91% - - 54° 56.7° 46.2° - - 892.0
2/27 11:40am 240 1 G 3 56° 90% - - 53° 56.5° 46.2° - - 892.0
2/27 11:30am 229 1 G 3 56° 90% - - 53° 56.3° 46.2° - - 891.0
2/27 11:20am 203 1 G 4 56° 89% - - 53° 56.3° 46.2° - - 891.0
2/27 11:10am 171 1 G 3 56° 89% - - 53° 56.3° 46.2° - - 891.0
2/27 11:00am 231 1 G 3 56° 88% - - 52° 56.3° 46.2° - - 891.0
2/27 10:50am 244 2 G 5 56° 87% - - 52° 56.3° 46.2° - - 890.0
2/27 10:40am 259 2 G 4 56° 86% - - 52° 56.3° 46.2° - - 890.0
2/27 10:30am 252 1 G 4 56° 85% - - 51° 56.3° 46.2° - - 890.0
2/27 10:20am 247 1 G 1 56° 85% - - 51° 56° 46.2° - - 890.0
2/27 10:10am 242 1 G 2 55° 86% - - 51° 55.7° 46.2° - - 890.0
2/27 10:00am 242 1 G 3 55° 86% - - 51° 55.5° 46.2° - - 890.0
2/27 9:50am 140 0 G 1 55° 86% - - 51° 55.2° 46.2° - - 890.0
2/27 9:40am 130 0 G 0 55° 87% - - 51° 55.1° 46.2° - - 890.0
2/27 9:30am 0 0 G 0 54° 87% - - 51° 54.7° 46.2° - - 890.0
2/27 9:20am 214 0 G 1 54° 87% - - 51° 54.7° 46.2° - - 890.0
2/27 9:10am 169 0 G 2 54° 88% - - 51° 54.7° 46.2° - - 890.0
2/27 9:00am 0 0 G 0 54° 89% - - 51° 54.6° 46.2° - - 891.0
2/27 8:50am 325 0 G 2 54° 89% - - 50° 53.9° 46.2° - - 891.0
2/27 8:40am 259 0 G 1 53° 90% - - 50° 53.4° 46.2° - - 891.0
2/27 8:30am 268 0 G 1 53° 91% - - 50° 53° 46.2° - - 891.0
2/27 8:20am 297 0 G 1 52° 91% - - 50° 52.4° 46.2° - - 891.0
2/27 8:10am 272 0 G 0 52° 92% - - 49° 51.9° 46.2° - - 891.0
2/27 8:00am 237 0 G 1 51° 92% - - 49° 51.5° 46.2° - - 891.0
2/27 7:50am 186 0 G 0 51° 92% - - 49° 51.1° 46.2° - - 891.0
2/27 7:40am 62 0 G 3 50° 92% - - 48° 50.7° 46.2° - - 891.0
2/27 7:30am 341 1 G 3 50° 92% - - 48° 50.1° 46.2° - - 891.0
2/27 7:20am 341 1 G 3 50° 92% - - 47° 49.8° 46.2° - - 891.0
2/27 7:10am 344 1 G 3 49° 93% - - 47° 49.7° 46.2° - - 891.0
2/27 7:00am 349 1 G 4 49° 94% - - 47° 49.4° 46.2° - - 891.0
2/27 6:50am 337 1 G 4 49° 94% - - 47° 49.4° 46.2° - - 891.0
2/27 6:40am 346 1 G 4 49° 94% - - 47° 49.4° 46.2° - - 891.0
2/27 6:30am 342 1 G 4 49° 93% - - 47° 49.4° 46.2° - - 891.0
2/27 6:20am 329 1 G 3 49° 93% - - 47° 49.4° 46.2° - - 891.0
2/27 6:10am 5 1 G 3 49° 93% - - 47° 49.4° 46.2° - - 891.0
2/27 6:00am 343 1 G 4 49° 92% - - 47° 49.4° 46.2° - - 891.0
2/27 5:50am 10 2 G 5 49° 92% - - 47° 49.4° 46.2° - - 891.0
2/27 5:40am 358 1 G 4 49° 92% - - 46° 49.4° 46.2° - - 890.0
2/27 5:30am 360 2 G 4 48° 91% - - 46° 49.4° 46.2° - - 890.0
2/27 5:20am 18 1 G 4 48° 90% - - 46° 49.4° 46.2° - - 889.0
2/27 5:10am 358 0 G 3 48° 90% - - 45° 49.4° 46.2° - - 889.0
2/27 5:00am 355 1 G 4 48° 89% - - 45° 49.4° 46.2° - - 889.0
2/27 4:50am 1 1 G 4 48° 89% - - 45° 49.4° 46.2° - - 889.0
2/27 4:40am 340 1 G 4 48° 88% - - 44° 49.4° 46.2° - - 889.0
2/27 4:30am 358 1 G 4 48° 88% - - 44° 49.4° 46.2° - - 888.0
2/27 4:20am 14 1 G 4 48° 87% - - 44° 49.4° 46.2° - - 888.0
2/27 4:10am 25 2 G 5 47° 86% - - 44° 49.4° 46.2° - - 888.0
2/27 4:00am 7 1 G 3 48° 85% - - 43° 49.4° 46.2° - - 887.0
2/27 3:50am 19 1 G 4 48° 84% - - 43° 49.4° 46.2° - - 887.0
2/27 3:40am 28 1 G 3 48° 83% - - 43° 49.4° 46.2° - - 887.0
2/27 3:30am 53 2 G 5 49° 82% - - 43° 49.4° 46.2° - - 886.0
2/27 3:20am 53 2 G 4 49° 79% - - 43° 49.4° 46.2° - - 885.0
2/27 3:10am 58 3 G 6 49° 76% - - 42° 49.4° 46.2° - - 884.0
2/27 3:00am 51 1 G 5 49° 76% - - 42° 49.4° 46.2° - - 884.0
2/27 2:50am 38 0 G 2 49° 77% - - 42° 49.3° 46.2° - - 884.0
2/27 2:40am 0 0 G 0 49° 78% - - 42° 49.2° 46.2° - - 884.0
2/27 2:30am 0 0 G 0 49° 77% - - 42° 49.2° 46.2° - - 884.0
2/27 2:20am 4 0 G 3 49° 76% - - 42° 49.2° 46.2° - - 884.0
2/27 2:10am 2 1 G 2 48° 77% - - 42° 48.8° 46.2° - - 884.0
2/27 2:00am 344 1 G 3 48° 78% - - 42° 48.6° 46.2° - - 884.0
2/27 1:50am 34 0 G 1 48° 78% - - 41° 48.4° 46.2° - - 885.0
2/27 1:40am 26 0 G 2 48° 78% - - 41° 48.4° 46.2° - - 884.0
2/27 1:30am 353 1 G 2 48° 78% - - 41° 48.4° 46.2° - - 884.0
2/27 1:20am 8 1 G 2 48° 77% - - 41° 48.4° 46.2° - - 884.0
2/27 1:10am 32 1 G 4 48° 78% - - 41° 48.3° 46.2° - - 884.0
2/27 1:00am 27 1 G 3 47° 81% - - 42° 47.4° 46.2° - - 885.0
2/27 12:50am 38 1 G 2 46° 82% - - 41° 47.4° 46.2° - - 886.0
2/27 12:40am 69 1 G 2 47° 81% - - 41° 47.4° 46.2° - - 885.0
2/27 12:30am 11 1 G 3 47° 80% - - 41° 47.4° 46.2° - - 885.0
2/27 12:20am 52 1 G 3 47° 80% - - 41° 47.4° 46.5° - - 885.0
2/27 12:10am 50 2 G 4 47° 80% - - 41° 47.4° 46.8° - - 885.0
2/27 12:00am 47 2 G 4 47° 80% - - 42° 58.3° 47.2° - - 885.0
2/26 11:50pm 19 1 G 2 48° 81% - - 42° 58.3° 47.3° - - 885.0
2/26 11:40pm 22 1 G 2 48° 80% - - 42° 58.3° 47.3° - - 885.0
2/26 11:30pm 10 0 G 1 48° 80% - - 42° 58.3° 47.3° - - 885.0
2/26 11:20pm 51 0 G 1 48° 80% - - 42° 58.3° 47.3° - - 885.0
2/26 11:10pm 1 0 G 1 48° 80% - - 42° 58.3° 47.3° - - 885.0
2/26 11:00pm 29 0 G 1 48° 80% - - 42° 58.3° 47.3° - - 885.0
2/26 10:50pm 55 0 G 1 48° 79% - - 42° 58.3° 47.3° - - 885.0
2/26 10:40pm 309 0 G 1 48° 80% - - 42° 58.3° 47.3° - - 885.0
2/26 10:30pm 15 0 G 2 48° 79% - - 42° 58.3° 47.3° - - 885.0
2/26 10:20pm 32 1 G 3 49° 78% - - 42° 58.3° 47.3° - - 885.0
2/26 10:10pm 30 1 G 3 49° 78% - - 42° 58.3° 47.3° - - 884.0
2/26 10:00pm 45 2 G 3 49° 77% - - 42° 58.3° 47.3° - - 884.0
2/26 9:50pm 38 2 G 4 49° 79% - - 43° 58.3° 47.3° - - 885.0
2/26 9:40pm 2 1 G 2 49° 80% - - 43° 58.3° 47.3° - - 886.0
2/26 9:30pm 0 0 G 1 49° 81% - - 43° 58.3° 47.3° - - 886.0
2/26 9:20pm 38 1 G 2 49° 81% - - 44° 58.3° 47.3° - - 886.0
2/26 9:10pm 344 0 G 2 49° 81% - - 44° 58.3° 47.3° - - 886.0
2/26 9:00pm 5 1 G 3 49° 80% - - 44° 58.3° 47.3° - - 886.0
2/26 8:50pm 28 1 G 4 49° 82% - - 44° 58.3° 47.3° - - 886.0
2/26 8:40pm 19 1 G 2 49° 83% - - 44° 58.3° 47.3° - - 887.0
2/26 8:30pm 19 0 G 1 49° 83% - - 44° 58.3° 47.3° - - 887.0
2/26 8:20pm 59 0 G 1 49° 82% - - 44° 58.3° 47.3° - - 886.0
2/26 8:10pm 39 0 G 2 49° 82% - - 44° 58.3° 47.3° - - 886.0
2/26 8:00pm 6 0 G 1 49° 82% - - 44° 58.3° 47.3° - - 886.0
2/26 7:50pm 6 0 G 2 49° 81% - - 44° 58.3° 47.3° - - 886.0
2/26 7:40pm 22 1 G 2 49° 80% - - 44° 58.3° 47.3° - - 886.0
2/26 7:30pm 12 0 G 1 50° 80% - - 44° 58.3° 47.3° - - 886.0
2/26 7:20pm 0 0 G 0 50° 80% - - 44° 58.3° 47.3° - - 885.0
2/26 7:10pm 21 0 G 2 50° 79% - - 43° 58.3° 47.3° - - 885.0
2/26 7:00pm 11 1 G 2 50° 78% - - 43° 58.3° 47.3° - - 885.0
2/26 6:50pm 344 2 G 2 50° 77% - - 43° 58.3° 47.3° - - 884.0
2/26 6:40pm 8 1 G 2 50° 76% - - 43° 58.3° 47.3° - - 884.0
2/26 6:30pm 306 0 G 1 50° 75% - - 43° 58.3° 47.3° - - 884.0
2/26 6:20pm 104 1 G 2 50° 75% - - 42° 58.3° 47.3° - - 884.0
2/26 6:10pm 96 1 G 1 50° 74% - - 42° 58.3° 47.3° - - 883.0
2/26 6:00pm 86 0 G 1 50° 71% - - 42° 58.3° 47.3° - - 882.0
2/26 5:50pm 211 0 G 2 51° 70% - - 42° 58.3° 47.3° - - 882.0
2/26 5:40pm 217 2 G 6 51° 69% - - 42° 58.3° 47.3° - - 882.0
2/26 5:30pm 217 2 G 5 52° 68% - - 42° 58.3° 47.3° - - 882.0
2/26 5:20pm 218 2 G 6 53° 64% - - 41° 58.3° 47.3° - - 881.0
2/26 5:10pm 204 1 G 4 54° 63% - - 42° 58.3° 47.3° - - 880.0
2/26 5:00pm 207 1 G 5 55° 62% - - 42° 58.3° 47.3° - - 880.0
2/26 4:50pm 245 3 G 6 54° 64% - - 43° 58.3° 47.3° - - 881.0